Date,TemperatureHighF,TemperatureAvgF,TemperatureLowF,DewpointHighF,DewpointAvgF,DewpointLowF,HumidityHigh,HumidityAvg,HumidityLow,PressureMaxIn,PressureMinIn,WindSpeedMaxMPH,WindSpeedAvgMPH,GustSpeedMaxMPH,PrecipitationSumIn
2013-1-1,39,33,23,30,22,13,82,66,49,29.84,29.66,11,5,15,0.00
2013-1-2,33,23,15,18,12,7,84,64,51,30.00,29.82,68,5,68,0.00
2013-1-3,27,16,7,14,4,-2,89,62,33,30.05,29.93,10,3,11,0.00
2013-1-4,39,27,15,28,21,14,98,80,51,29.93,29.75,11,3,12,0.00
2013-1-5,44,32,24,29,24,22,97,75,45,30.19,29.79,12,3,12,0.00
2013-1-6,44,32,24,34,29,23,100,88,62,30.15,29.86,12,2,12,0.00
2013-1-7,40,32,23,33,29,23,100,90,67,30.33,29.89,12,2,12,0.00
2013-1-8,47,33,21,34,29,21,100,85,53,30.31,30.19,11,3,14,0.00
2013-1-9,45,35,24,40,32,24,100,89,72,30.32,29.94,13,3,13,0.00
2013-1-10,49,42,35,35,27,24,76,55,40,30.45,29.97,19,6,19,0.00
2013-1-11,42,35,26,38,32,25,100,89,74,30.44,30.15,7,1,7,0.00
2013-1-12,47,43,37,47,-26,-100,100,52,97,30.16,30.05,7,1,7,0.00
2013-1-13,51,46,42,-100,-100,-100,0,0,100,30.09,29.94,15,4,15,0.00
2013-1-14,63,53,44,58,-32,-100,100,30,44,30.17,29.83,13,5,13,0.00
2013-1-15,44,38,33,38,34,31,100,83,64,30.23,30.14,7,1,7,0.00
2013-1-16,37,35,33,35,-31,-100,100,49,82,30.17,29.72,6,1,6,0.00
2013-1-17,44,37,32,40,1,-100,100,66,69,30.01,29.77,17,3,17,0.00
2013-1-18,31,24,17,27,-77,-100,100,15,55,30.39,29.98,22,6,22,0.00
2013-1-19,47,37,19,46,23,-100,100,77,61,30.33,29.84,25,9,25,0.00
2013-1-20,56,44,30,46,38,20,100,81,50,29.85,29.49,21,9,21,0.00
2013-1-21,30,26,22,27,21,15,100,80,64,30.03,29.75,17,3,17,0.00
2013-1-22,28,22,15,26,4,-100,100,71,50,30.00,29.67,15,4,15,0.00
2013-1-23,18,12,8,8,4,1,92,70,54,30.06,29.98,14,4,14,0.00
2013-1-24,21,12,4,10,-10,-100,79,59,51,30.07,29.97,17,7,17,0.00
2013-1-25,26,17,8,22,-7,-100,100,56,41,30.22,29.98,13,4,13,0.00
2013-1-26,26,18,9,20,4,-100,100,76,53,30.14,29.92,14,3,14,0.00
2013-1-27,32,21,12,23,12,-100,100,76,54,30.38,30.14,19,6,19,0.00
2013-1-28,32,23,13,31,9,-100,100,86,64,30.38,29.93,7,1,8,0.00
2013-1-29,35,32,28,35,14,-100,100,86,100,30.13,29.93,4,0,4,0.00
2013-1-30,59,49,34,59,-69,-100,100,20,100,30.09,29.44,27,10,27,0.00
2013-1-31,58,46,33,58,-23,-100,100,30,29,29.52,28.95,45,12,45,0.00
2013-2-1,35,30,24,33,3,-100,100,42,20,30.00,29.53,17,7,17,0.00
2013-2-2,30,25,18,23,11,-100,100,59,34,30.18,29.98,14,4,14,0.00
2013-2-3,28,24,22,26,-46,-100,100,40,62,29.98,29.87,6,1,7,0.00
2013-2-4,31,24,19,26,-31,-100,100,43,52,29.87,29.64,14,4,14,0.00
2013-2-5,28,25,22,27,10,-100,100,75,62,29.96,29.86,6,1,6,0.00
2013-2-6,40,32,26,33,-20,-100,100,42,47,30.19,29.84,19,3,19,0.00
2013-2-7,30,24,18,25,12,7,91,59,42,30.45,30.19,11,3,11,0.00
2013-2-8,33,31,26,33,-34,-100,100,50,88,30.40,29.47,32,9,32,0.00
2013-2-9,23,19,14,18,14,5,97,80,45,30.09,29.60,12,1,12,0.00
2013-2-10,39,20,6,39,11,-100,100,85,18,30.31,30.09,3,0,4,0.00
2013-2-11,45,32,12,38,-37,-100,100,51,99,30.28,29.54,12,2,12,0.00
2013-2-12,46,40,31,44,14,-100,100,74,64,29.81,29.54,12,5,14,0.00
2013-2-13,46,34,25,46,14,-100,100,83,69,29.81,29.61,8,1,10,0.00
2013-2-14,45,34,26,34,29,-100,100,86,53,29.94,29.64,9,2,9,0.00
2013-2-15,49,37,25,44,12,-100,100,76,70,29.96,29.86,19,6,19,0.00
2013-2-16,36,34,31,36,-22,-100,100,58,100,29.89,29.62,9,2,9,0.00
2013-2-17,32,23,19,32,22,10,100,96,62,29.62,29.29,35,11,35,0.00
2013-2-18,34,22,15,29,15,-100,99,86,67,30.09,29.59,22,8,22,0.00
2013-2-19,48,37,16,44,-15,-100,100,56,63,30.10,29.53,13,5,13,0.00
2013-2-20,42,34,26,35,-12,-100,100,56,66,29.71,29.48,17,6,17,0.00
2013-2-21,35,28,26,28,22,20,94,79,65,30.06,29.71,19,7,19,0.00
2013-2-22,39,32,26,32,28,22,99,87,70,30.30,30.07,13,4,13,0.00
2013-2-23,40,35,32,36,8,-100,100,75,72,30.27,29.83,8,2,9,0.00
2013-2-24,40,36,31,-100,-100,-100,0,0,100,29.83,29.60,12,5,12,0.00
2013-2-25,42,34,29,42,-36,-100,100,47,100,30.18,29.80,9,2,9,0.00
2013-2-26,46,36,26,42,-81,-100,100,14,100,30.27,30.08,9,2,9,0.00
2013-2-27,42,41,39,39,-90,-100,100,7,100,30.09,29.48,21,7,21,0.00
2013-2-28,48,39,35,-100,-100,-100,0,0,100,29.59,29.45,5,1,5,0.00
2013-3-1,42,38,36,-100,-100,-100,0,0,100,29.60,29.45,9,3,9,0.00
2013-3-2,45,41,37,-100,-100,-100,0,0,100,29.60,29.55,7,2,7,0.00
2013-3-3,44,37,33,-100,-100,-100,0,0,100,29.57,29.49,9,3,9,0.00
2013-3-4,43,35,31,-100,-100,-100,0,0,100,29.65,29.50,21,7,21,0.00
2013-3-5,43,37,31,-100,-100,-100,0,0,100,29.99,29.65,16,4,16,0.00
2013-3-6,41,38,32,-100,-100,-100,0,0,100,30.03,29.95,29,11,29,0.00
2013-3-7,37,34,32,-100,-100,-100,0,0,100,29.96,29.88,29,12,29,0.00
2013-3-8,40,34,32,39,-97,-100,100,2,100,30.04,29.83,22,8,22,0.00
2013-3-9,41,35,27,41,-45,-100,100,40,100,30.27,30.04,17,6,17,0.00
2013-3-10,43,34,27,43,-22,-100,100,57,100,30.33,30.25,7,2,7,0.00
2013-3-11,51,41,33,48,-26,-100,100,54,97,30.26,30.09,12,6,12,0.00
2013-3-12,55,49,38,52,-87,-100,100,9,100,30.10,29.68,17,7,17,0.00
2013-3-13,54,46,32,44,-91,-100,100,6,100,29.72,29.63,11,4,11,0.00
2013-3-14,36,33,24,30,-98,-100,97,2,97,29.75,29.64,18,5,18,0.00
2013-3-15,41,30,21,-100,-100,-100,0,0,100,29.80,29.58,18,7,18,0.00
2013-3-16,41,34,28,-100,-100,-100,0,0,100,29.80,29.60,11,3,11,0.00
2013-3-17,40,32,24,-100,-100,-100,0,0,100,30.23,29.80,13,3,13,0.00
2013-3-18,38,30,20,-100,-100,-100,0,0,100,30.38,30.19,11,3,11,0.00
2013-3-19,38,34,29,-100,-100,-100,0,0,100,30.19,29.49,21,8,21,0.00
2013-3-20,41,32,26,-100,-100,-100,0,0,100,29.75,29.60,17,6,17,0.00
2013-3-21,38,31,23,-100,-100,-100,0,0,100,29.76,29.54,9,2,9,0.00
2013-3-22,41,35,29,-100,-100,-100,0,0,100,29.67,29.53,12,4,12,0.00
2013-3-23,44,36,29,-100,-100,-100,0,0,100,29.71,29.57,19,7,19,0.00
2013-3-24,49,38,30,-100,-100,-100,0,0,100,29.75,29.66,14,3,14,0.00
2013-3-25,46,38,30,-100,-100,-100,0,0,100,29.70,29.44,17,5,17,0.00
2013-3-26,51,41,34,-100,-100,-100,0,0,100,29.70,29.44,24,5,24,0.00
2013-3-27,53,43,29,-100,-100,-100,0,0,100,29.79,29.67,12,4,12,0.00
2013-3-28,49,43,38,-100,-100,-100,0,0,100,29.94,29.79,11,4,11,0.00
2013-3-29,50,45,41,-100,-100,-100,0,0,100,29.97,29.93,2,0,4,0.00
2013-3-30,57,46,34,-100,-100,-100,0,0,100,30.03,29.94,10,3,10,0.00
2013-3-31,59,44,28,-100,-100,-100,0,0,100,30.06,29.71,24,5,24,0.00
2013-4-1,60,49,37,-100,-100,-100,0,0,100,29.72,29.45,19,7,19,0.00
2013-4-2,42,36,30,-100,-100,-100,0,0,100,29.88,29.72,22,7,22,0.00
2013-4-3,47,38,31,-100,-100,-100,0,0,100,30.09,29.87,23,8,23,0.00
2013-4-4,54,41,30,-100,-100,-100,0,0,100,30.22,30.01,19,6,19,0.00
2013-4-5,59,46,38,-100,-100,-100,0,0,100,30.01,29.57,13,6,13,0.00
2013-4-6,48,39,31,-100,-100,-100,0,0,100,30.27,29.78,21,5,21,0.00
2013-4-7,48,34,26,-100,-100,-100,0,0,100,30.27,29.96,12,3,12,0.00
2013-4-8,65,52,45,-100,-100,-100,0,0,100,30.05,29.89,14,5,14,0.00
2013-4-9,74,56,46,-100,-100,-100,0,0,100,30.03,29.79,15,5,15,0.00
2013-4-10,64,51,45,-100,-100,-100,0,0,100,29.96,29.81,9,3,9,0.00
2013-4-11,53,48,43,-100,-100,-100,0,0,100,30.07,29.75,13,4,13,0.00
2013-4-12,43,40,38,-100,-100,-100,0,0,100,30.10,29.78,13,6,14,0.00
2013-4-13,51,44,38,-100,-100,-100,0,0,100,29.87,29.75,8,3,8,0.00
2013-4-14,54,46,37,-100,-100,-100,0,0,100,30.14,29.86,13,3,13,0.00
2013-4-15,55,45,32,-100,-100,-100,0,0,100,30.33,30.13,9,3,9,0.00
2013-4-16,62,50,35,-100,-100,-100,0,0,100,30.35,30.03,21,9,21,0.00
2013-4-17,68,58,45,-100,-100,-100,0,0,100,30.25,30.00,21,5,21,0.00
2013-4-18,62,51,36,-100,-100,-100,0,0,100,30.36,30.11,17,6,17,0.00
2013-4-19,71,62,52,68,-99,-100,100,1,100,30.11,29.64,28,11,28,0.00
2013-4-20,64,55,48,-100,-100,-100,0,0,100,30.14,29.57,21,7,21,0.00
2013-4-21,52,43,34,-100,-100,-100,0,0,100,30.60,30.13,204,7,204,0.00
2013-4-22,51,41,31,-100,-100,-100,0,0,100,30.68,30.52,18,6,18,0.00
2013-4-23,44,42,40,-100,-100,-100,0,0,100,30.52,30.01,16,6,16,0.00
2013-4-24,70,52,42,-100,-100,-100,0,0,100,30.03,29.76,19,9,19,0.00
2013-4-25,65,56,48,-100,-100,-100,0,0,100,30.12,29.80,16,6,16,0.00
2013-4-26,56,49,43,-100,-100,-100,0,0,100,30.35,30.30,11,4,11,0.00
2013-4-27,63,51,37,-100,-100,-100,0,0,100,30.35,30.24,11,3,11,0.00
2013-4-28,67,53,36,-100,-100,-100,0,0,100,30.27,30.17,12,4,12,0.00
2013-4-29,67,55,42,-100,-100,-100,0,0,100,30.22,30.14,14,4,14,0.00
2013-4-30,67,53,38,-100,-100,-100,0,0,100,30.30,30.19,11,2,11,0.00
2013-5-1,67,52,36,-100,-100,-100,0,0,100,30.41,30.30,9,2,9,0.00
2013-5-2,75,54,40,-100,-100,-100,0,0,100,30.40,30.30,9,3,11,0.00
2013-5-3,56,48,41,-100,-100,-100,0,0,100,30.45,30.30,16,4,16,0.00
2013-5-4,56,46,37,-100,-100,-100,0,0,100,30.30,30.25,17,3,17,0.00
2013-5-5,58,46,35,-100,-100,-100,0,0,100,30.26,30.20,12,3,12,0.00
2013-5-6,66,53,38,-100,-100,-100,0,0,100,30.23,30.09,11,2,11,0.00
2013-5-7,76,61,44,-100,-100,-100,0,0,100,30.12,30.03,14,3,14,0.00
2013-5-8,72,62,52,-100,-100,-100,0,0,100,30.13,29.99,15,4,15,0.00
2013-5-9,68,61,58,-100,-100,-100,0,0,100,29.99,29.83,6,2,6,0.00
2013-5-10,74,69,63,-100,-100,-100,0,0,100,29.88,29.85,10,5,10,0.00
2013-5-11,71,63,59,-100,-100,-100,0,0,100,29.87,29.65,22,8,22,0.00
2013-5-12,72,62,50,-100,-100,-100,0,0,100,29.75,29.51,19,4,19,0.00
2013-5-13,61,52,38,-100,-100,-100,0,0,100,29.95,29.75,11,3,11,0.00
2013-5-14,58,51,40,-100,-100,-100,0,0,100,29.98,29.91,10,3,10,0.00
2013-5-15,65,50,33,-100,-100,-100,0,0,100,30.00,29.62,23,6,23,0.00
2013-5-16,82,62,50,-100,-100,-100,0,0,100,29.72,29.58,21,4,21,0.00
2013-5-17,68,58,48,-100,-100,-100,0,0,100,30.15,29.72,12,3,12,0.00
2013-5-18,71,59,42,-100,-100,-100,0,0,100,30.24,30.15,11,3,11,0.00
2013-5-19,70,58,47,-100,-100,-100,0,0,100,30.28,30.18,11,3,11,0.00
2013-5-20,84,68,56,-100,-100,-100,0,0,100,30.18,29.85,10,4,10,0.00
2013-5-21,82,62,52,-100,-100,-100,0,0,100,29.93,29.80,14,4,14,0.00
2013-5-22,67,57,51,-100,-100,-100,0,0,100,29.96,29.83,12,3,12,0.00
2013-5-23,75,66,57,-100,-100,-100,0,0,100,29.87,29.78,26,8,26,0.00
2013-5-24,69,64,52,-100,-100,-100,0,0,100,29.78,29.61,12,5,14,0.00
2013-5-25,54,50,42,-100,-100,-100,0,0,100,29.73,29.62,12,5,12,0.00
2013-5-26,60,49,40,-100,-100,-100,0,0,100,30.00,29.65,14,6,14,0.00
2013-5-27,73,57,40,-100,-100,-100,0,0,100,30.10,30.00,17,3,17,0.00
2013-5-28,74,60,42,-100,-100,-100,0,0,100,30.17,30.10,9,3,9,0.00
2013-5-29,73,63,59,-100,-100,-100,0,0,100,30.14,29.94,11,4,11,0.00
2013-5-30,88,76,64,-100,-100,-100,0,0,100,30.02,29.94,18,3,18,0.00
2013-5-31,92,79,63,-100,-100,-100,0,0,100,30.02,29.88,10,3,10,0.00
2013-6-1,89,77,66,-100,-100,-100,0,0,100,29.93,29.82,18,7,18,0.00
2013-6-2,84,74,66,-100,-100,-100,0,0,100,29.85,29.71,19,10,19,0.00
2013-6-3,72,67,64,-100,-100,-100,0,0,100,29.79,29.71,15,4,15,0.00
2013-6-4,72,62,52,-100,-100,-100,0,0,100,30.03,29.75,11,4,11,0.00
2013-6-5,65,53,47,-100,-100,-100,0,0,100,30.11,30.03,8,1,8,0.00
2013-6-6,74,64,54,-100,-100,-100,0,0,100,30.13,30.04,12,4,12,0.00
2013-6-7,60,57,54,-100,-100,-100,0,0,100,30.06,29.74,13,3,13,0.00
2013-6-8,78,64,54,-100,-100,-100,0,0,100,29.93,29.52,11,4,11,0.00
2013-6-9,80,68,57,-100,-100,-100,0,0,100,30.10,29.93,12,2,12,0.00
2013-6-10,70,62,54,-100,-100,-100,0,0,100,30.14,29.96,10,2,10,0.00
2013-6-11,68,61,55,-100,-100,-100,0,0,100,29.96,29.52,9,3,9,0.00
2013-6-12,62,58,55,-100,-100,-100,0,0,100,29.75,29.53,9,3,9,0.00
2013-6-13,67,58,51,-100,-100,-100,0,0,100,29.75,29.61,7,2,7,0.00
2013-6-14,72,58,53,-100,-100,-100,0,0,100,29.69,29.55,14,5,14,0.00
2013-6-15,79,67,55,-100,-100,-100,0,0,100,29.88,29.68,11,2,11,0.00
2013-6-16,70,56,50,-100,-100,-100,0,0,100,29.88,29.86,4,1,4,0.00
2013-6-17,86,75,62,-100,-100,-100,0,0,100,29.85,29.72,14,5,14,0.00
2013-6-18,75,63,59,-100,-100,-100,0,0,100,29.87,29.83,9,1,9,0.00
2013-6-19,59,58,56,-100,-100,-100,0,0,100,30.09,30.09,4,2,4,0.00
2013-6-20,55,52,49,-100,-100,-100,0,0,100,30.18,30.09,0,0,0,0.00
2013-6-23,66,66,65,-100,-100,-100,0,0,100,30.10,30.08,6,4,6,0.00
2013-6-24,70,70,70,-100,-100,-100,0,0,100,29.88,29.87,2,2,2,0.00
2013-6-25,70,69,68,-100,-100,-100,0,0,100,29.87,29.84,4,2,4,0.00
2013-6-26,74,71,68,-100,-100,-100,0,0,100,29.79,29.67,6,1,6,0.00
2013-6-27,67,66,64,-100,-100,-100,0,0,100,29.79,29.77,6,2,6,0.00
2013-7-1,74,74,73,-100,-100,-100,0,0,100,30.01,29.98,7,4,7,0.00
2013-7-26,67,67,67,-100,-100,-100,0,0,100,29.97,29.97,0,0,2,0.00
2013-7-30,65,65,65,-100,-100,-100,0,0,100,30.07,30.07,0,0,0,0.00
2013-7-31,74,69,66,-100,-100,-100,0,0,100,30.11,30.03,2,1,4,0.00
2013-8-1,77,66,62,-100,-100,-100,0,0,100,30.01,29.90,9,2,9,0.00
2013-8-2,81,70,66,-100,-100,-100,0,0,100,29.81,29.78,0,0,4,0.00
2013-8-3,68,68,68,-100,-100,-100,0,0,100,29.83,29.83,2,2,4,0.00
2013-11-27,56,52,46,-100,-100,-100,0,0,100,29.24,29.22,7,7,7,0.00
2013-11-28,25,25,25,-100,-100,-100,0,0,100,30.41,30.41,1,1,0,0.00
2013-11-29,25,24,24,-100,-100,-100,0,0,100,30.41,30.41,2,2,2,0.00
2013-11-30,22,22,22,-100,-100,-100,0,0,100,30.71,30.69,2,1,2,0.00